Location: Caltech
(34.1382°N, 118.1253°W)
Time: 12:03:23
(UTC-07:00)

PCSat - Visible Passes

Search period start: 23 June 2017 00:00
Search period end: 03 July 2017 00:00
Orbit: 784 x 796 km, 67.1° (Epoch: 22 June)

Date Brightness Start Highest point End Pass type
(mag) Time Alt. Az. Time Alt. Az. Time Alt. Az.
23 Jun 10.5 21:37:36 10° N 21:42:35 36° ENE 21:45:05 24° ESE visible
23 Jun 11.0 23:21:21 10° NW 23:25:45 26° WSW 23:25:48 26° WSW visible
24 Jun 10.9 21:07:04 10° N 21:11:35 26° NE 21:15:09 14° ESE visible
24 Jun 10.5 22:50:04 10° NW 22:55:00 37° WSW 22:55:52 35° SW visible
25 Jun 11.3 20:36:40 10° N 20:40:31 19° NE 20:44:21 10° E visible
25 Jun 10.0 22:18:56 10° NW 22:24:13 53° WSW 22:26:00 37° SSW visible
26 Jun 9.6 21:47:57 10° NNW 21:53:23 77° WSW 21:56:10 29° SSE visible
27 Jun 9.6 21:17:05 10° NNW 21:22:32 75° ENE 21:26:24 19° SSE visible
27 Jun 12.0 23:03:43 10° W 23:05:10 11° WSW 23:06:38 10° WSW visible
28 Jun 9.9 20:46:18 10° NNW 20:51:37 53° ENE 20:56:40 11° SE visible
28 Jun 11.8 22:31:09 10° WNW 22:34:30 17° WSW 22:37:25 11° SW visible
29 Jun 11.4 21:59:30 10° NW 22:03:47 24° WSW 22:07:45 11° SSW visible
30 Jun 10.9 21:28:10 10° NW 21:33:03 35° WSW 21:37:53 10° S visible
01 Jul 10.3 20:57:02 10° NW 21:02:16 50° WSW 21:07:27 10° S visible
